Погода в Большом Опарине

Россия / Республика Марий Эл     56°39′34″N   49°50′59″E
темп.,
°C
ветер,
м/с
пор.,
м/с
влажн.,
%
обл.,
%
осадки,
мм/ч
давл.,
гПа
погр.,
м
17 мая, пн
пн1700:00+17юз22875 0.0 101517
03:00+16з228991 0.0 101620
06:00+18зюз12817 0.6 1016120
09:00+24з3459100 0.6 1016749
12:00+27сз464813 0.0 10161589
15:00+26сз554951 0.0 1017839
18:00+23с35635 0.5 1017176
21:00+18с33695 0.8 101833
18 мая, вт
вт1800:00+16св33753 0.0 101828
03:00+14всв35825 0.0 102086
06:00+17всв367512 0.0 1020198
09:00+21всв4459100 0.0 1020665
12:00+23св444689 0.0 1020997
15:00+24св444130 0.0 10201205
18:00+22св35565 0.0 1019136
21:00+16всв376863 0.0 1020107
19 мая, ср
ср1900:00+15вюв3974100 0.0 1020160
03:00+13вюв4118010 0.0 1021215
06:00+16вюв510735 0.0 1021360
09:00+20вюв68555 0.0 1021796
12:00+23вюв68420 0.0 10211242
15:00+24юв67390 0.0 10201423
18:00+22юв47540 0.0 1020248
21:00+16вюв410685 0.0 1020174
20 мая, чт
чт2000:00+14юв411715 0.0 1020206
03:00+13юв39750 0.0 1020147
06:00+16юв410685 0.0 1020272
09:00+22ююв58465 0.0 10201101
12:00+23юв78385 0.0 10191754
15:00+24юв794017 0.0 10171819
18:00+21юв510505 0.0 1016456
21:00+16юв413660 0.0 1016247
21 мая, пт
пт2100:00+14юв41267100 0.0 1015233
03:00+13вюв410680 0.0 1014205
06:00+16юв4106680 0.0 1013349
09:00+14ююв2580100 0.2 1013267
12:00+16юз4479100 0.3 1013389
15:00+15ююз4787100 1.7 1013472
18:00+19ююз37707 0.2 1013366
21:00+15юз41081100 0.6 1014257